This is the latest recevied weather packets stored in our database for station/object 9A3SWO. If no packets are shown the sender has not sent any weather packets the latest 10 day(s).
| Time | Temp. | Humidity | Pressure | Rain* | Wind** | Luminosity | Snow |
|---|---|---|---|---|---|---|---|
| 1777647194 | 17.22° C | 35% | 1026.5 hPa | - | - | - | - |
| 1777646594 | 17.78° C | 36% | 1026.5 hPa | - | - | - | - |
| 1777645994 | 17.22° C | 37% | 1026.5 hPa | - | - | - | - |
| 1777645394 | 17.22° C | 36% | 1026.5 hPa | - | - | - | - |
| 1777644794 | 17.22° C | 36% | 1026.6 hPa | - | - | - | - |
| 1777644194 | 17.22° C | 36% | 1026.7 hPa | - | - | - | - |
| 1777643594 | 17.22° C | 36% | 1026.8 hPa | - | - | - | - |
| 1777642994 | 17.22° C | 36% | 1026.9 hPa | - | - | - | - |
| 1777642394 | 16.67° C | 36% | 1027.2 hPa | - | - | - | - |
| 1777641794 | 17.22° C | 35% | 1027.1 hPa | - | - | - | - |
| 1777641194 | 17.22° C | 36% | 1027.3 hPa | - | - | - | - |
| 1777640594 | 16.67° C | 35% | 1027.3 hPa | - | - | - | - |
| 1777639994 | 16.67° C | 35% | 1027.4 hPa | - | - | - | - |
| 1777639394 | 16.67° C | 35% | 1027.4 hPa | - | - | - | - |
| 1777638794 | 16.67° C | 34% | 1027.7 hPa | - | - | - | - |
| 1777638194 | 16.67° C | 35% | 1027.8 hPa | - | - | - | - |
| 1777637594 | 16.67° C | 36% | 1028 hPa | - | - | - | - |
| 1777636994 | 16.11° C | 36% | 1028.2 hPa | - | - | - | - |
| 1777636394 | 16.11° C | 36% | 1028.1 hPa | - | - | - | - |
| 1777635794 | 16.11° C | 36% | 1028.1 hPa | - | - | - | - |
| 1777635194 | 16.11° C | 38% | 1028.2 hPa | - | - | - | - |
| 1777634594 | 16.11° C | 37% | 1028.4 hPa | - | - | - | - |
| 1777633993 | 16.11° C | 36% | 1028.6 hPa | - | - | - | - |
| 1777633394 | 16.11° C | 37% | 1028.7 hPa | - | - | - | - |
| 1777632794 | 15.56° C | 37% | 1028.7 hPa | - | - | - | - |
* Rain since midnight (hover to see other rain measurements)
** Current wind speed in m/s (hover to see current wind gust speed)